GFSNW_sfc_temp_159.txt.gz
Temp
57 57 57 57 57 56 57 60 57 63 64 58 59 49 50 48 52 55 53 54 53 51 51 50 50 49 50 54 53 51 53 55 45 47 49 51 50 52 54 49 45 47 47 50
56 56 56 56 56 56 58 61 61 64 61 52 52 52 51 52 52 52 52 51 53 54 51 47 50 50 52 53 52 50 53 50 42 44 47 49 48 50 50 52 51 47 46 53
56 56 56 56 56 56 57 61 54 62 63 60 57 53 50 50 52 52 53 53 55 53 52 54 49 49 51 52 52 47 51 51 48 46 46 52 45 47 50 53 45 49 50 56
57 56 56 55 55 55 57 59 53 53 52 55 55 55 52 50 48 54 55 53 52 51 50 51 49 50 51 52 50 53 52 46 43 47 47 47 48 48 47 46 50 48 54 51
57 56 55 55 55 54 61 58 58 57 56 53 55 50 51 50 49 50 51 50 51 54 49 49 48 51 52 49 54 51 53 44 45 40 44 44 42 47 49 48 48 48 49 49
57 56 55 55 54 56 62 58 58 57 48 54 55 53 51 50 52 51 52 52 53 50 48 52 52 54 53 51 51 49 49 46 44 42 44 45 43 48 48 48 50 51 46 55
57 56 56 55 54 54 59 57 58 57 54 55 54 52 52 51 51 50 51 53 53 50 56 56 56 55 53 52 50 52 48 47 44 39 45 37 46 51 52 50 52 54 52 54
56 56 56 55 55 54 59 57 56 57 54 55 52 51 52 52 52 51 51 51 52 56 53 50 47 47 46 46 46 48 50 49 42 39 42 50 47 45 46 47 51 55 54 55
56 56 56 55 55 54 58 55 54 57 54 55 55 53 53 54 53 50 48 52 55 53 52 49 44 45 44 43 42 47 47 49 46 42 37 40 49 51 54 53 45 55 54 54
56 56 55 55 55 53 57 54 53 55 53 55 54 54 54 55 53 53 50 49 49 52 50 46 46 45 45 43 42 41 42 44 41 42 40 47 52 52 53 42 46 54 54 54
56 55 55 55 55 54 55 54 54 53 54 54 52 53 52 52 53 53 49 49 48 48 44 45 47 45 47 44 48 45 44 42 41 43 39 35 53 49 46 53 54 54 54 54
55 55 55 55 55 54 53 54 53 54 53 51 50 51 51 49 49 52 50 49 50 53 49 47 47 44 45 46 45 47 42 50 49 48 50 54 55 57 57 55 53 54 53 55
53 55 55 55 55 55 53 55 54 53 51 53 50 49 49 51 50 51 50 51 50 50 51 52 49 44 49 44 46 48 50 52 47 47 56 55 57 59 58 57 55 55 55 54
51 52 54 55 55 54 53 54 54 53 51 45 48 50 47 49 50 49 50 50 50 52 52 50 49 46 51 49 47 47 51 48 49 48 52 55 57 57 57 54 54 53 54 52
51 51 50 52 54 54 53 54 54 54 50 44 48 47 45 48 48 47 48 49 50 51 47 45 44 50 46 48 44 44 53 50 47 47 58 55 56 55 53 51 52 52 49 49
51 51 50 50 52 52 50 44 52 52 54 46 41 45 43 45 46 46 46 47 48 49 48 47 49 46 45 42 42 53 58 59 59 54 58 54 54 53 53 49 50 50 48 49
51 51 51 50 50 50 45 44 49 50 52 45 39 41 40 42 43 43 44 44 45 46 46 43 46 44 42 41 40 54 56 57 57 55 51 48 50 49 50 49 49 48 48 48
51 51 51 51 50 49 46 46 49 51 49 45 36 36 37 41 39 38 42 41 42 42 43 42 40 41 41 35 47 52 53 53 49 50 51 50 49 48 48 49 48 45 46 47
51 51 50 49 46 43 44 48 48 47 44 38 36 34 34 39 37 39 39 41 36 40 37 38 39 37 30 40 46 49 50 47 48 47 47 46 45 45 46 46 45 44 45 45
50 48 44 41 44 48 48 43 40 39 40 37 33 39 34 39 37 35 36 37 37 30 36 39 32 33 43 46 49 50 49 49 46 35 37 41 40 41 44 43 45 45 45 45
46 42 39 44 47 43 41 35 33 35 32 35 35 37 35 39 35 37 39 34 34 28 33 32 32 33 40 47 47 50 49 48 46 45 44 43 42 40 41 42 42 42 42 40
43 42 45 43 37 34 33 32 35 32 33 33 33 39 40 37 41 37 34 33 32 28 34 29 27 37 43 40 42 43 45 44 42 42 41 41 42 42 42 41 38 38 37 35
46 41 34 34 33 29 30 28 31 31 33 33 35 33 37 35 37 36 34 29 29 34 27 27 35 41 40 41 40 40 42 42 41 41 42 42 41 41 41 40 42 42 41 42
34 32 27 29 29 30 35 36 37 39 38 36 39 35 37 38 33 35 30 33 31 25 24 27 37 41 42 41 41 39 38 40 38 34 35 36 37 38 39 40 41 40 40 40
31 32 27 29 36 33 31 31 35 36 41 39 35 34 37 33 32 33 31 26 26 29 30 36 38 38 38 38 38 40 38 37 35 35 31 29 31 37 39 40 39 38 37 37
32 32 29 33 31 32 30 32 32 37 39 36 35 32 31 31 32 28 27 27 26 33 34 37 36 35 37 38 38 40 40 39 38 37 35 33 33 35 37 36 36 36 36 35
31 29 35 35 33 34 33 36 38 41 35 32 33 29 30 32 29 28 33 30 35 36 37 36 36 36 38 39 38 38 38 39 40 38 37 35 34 29 29 30 36 34 33 32

GFSNW_sfc_temp_165.txt.gz
Temp
56 57 57 57 57 56 53 46 41 51 51 42 38 35 42 47 47 49 47 45 44 41 42 41 41 39 41 47 45 41 42 39 29 35 40 42 39 38 39 32 33 31 30 28
56 56 56 57 57 56 44 43 44 51 50 37 34 41 45 46 46 45 46 45 46 45 42 38 41 42 48 48 44 41 42 37 25 31 36 40 36 40 40 40 35 32 29 32
56 56 56 56 56 56 45 44 39 45 45 43 41 39 41 42 46 46 48 46 47 44 41 45 40 41 46 47 46 49 45 38 35 31 33 37 33 37 39 38 28 32 32 35
57 56 56 56 56 56 47 44 40 42 36 42 41 42 43 42 40 45 46 44 44 41 38 39 39 42 43 46 49 44 42 34 32 34 38 38 37 38 39 37 37 33 37 38
57 56 55 55 55 55 47 44 43 42 41 44 40 41 40 42 43 42 42 41 44 42 37 37 36 39 38 36 43 40 42 32 32 31 36 37 34 37 37 37 38 36 37 35
56 56 55 55 55 54 46 45 46 45 43 41 39 38 40 43 44 44 45 43 41 40 40 41 41 41 42 39 37 38 38 33 28 29 33 34 32 36 37 36 37 40 34 40
56 56 55 55 55 53 47 44 43 42 41 43 43 44 45 43 42 41 44 44 41 42 47 46 43 41 43 43 41 41 37 35 29 24 31 25 36 39 41 41 42 42 42 43
56 56 55 55 55 55 47 45 44 42 39 44 44 44 43 42 42 41 42 42 43 44 42 38 35 34 35 37 38 38 39 36 29 27 26 34 35 39 40 39 38 43 43 44
56 56 55 55 55 55 48 44 44 43 42 41 46 44 43 39 36 38 41 44 45 43 39 38 30 31 32 32 34 38 40 38 33 29 27 27 37 40 43 42 34 42 45 44
56 55 55 55 55 54 48 45 46 44 41 43 43 42 42 43 40 38 38 39 40 41 36 33 32 32 35 32 30 30 31 31 29 28 27 34 41 42 43 31 37 44 45 44
55 55 55 55 55 54 49 45 47 45 41 42 45 46 42 43 42 39 41 40 40 37 34 33 33 32 35 32 34 33 33 29 28 29 26 27 43 40 39 43 40 44 43 42
54 55 55 55 54 54 52 44 47 47 43 43 45 44 43 43 43 42 41 41 40 40 35 34 33 34 33 33 32 36 33 38 36 37 36 44 43 42 43 44 43 43 42 43
53 54 55 55 55 55 52 45 45 44 41 41 41 40 42 46 44 44 41 40 42 41 40 37 36 33 35 31 33 34 37 39 38 40 41 41 43 44 45 46 45 45 45 43
52 52 54 54 55 54 53 47 46 44 42 36 39 45 39 43 44 44 44 43 43 42 39 37 35 35 40 35 37 37 40 39 38 36 41 42 42 44 46 45 45 45 44 42
51 51 51 51 54 54 51 49 49 50 43 37 38 40 40 42 42 41 42 43 41 38 36 33 34 36 37 34 34 34 41 39 36 36 44 43 43 43 44 44 43 43 42 39
51 51 51 51 50 52 48 43 48 49 46 38 31 38 35 39 40 40 41 41 39 37 36 34 37 39 36 29 29 42 45 44 46 46 44 45 44 44 44 43 42 42 41 39
51 51 51 51 50 49 45 43 45 49 48 42 34 34 35 37 38 39 39 40 38 37 35 34 35 37 35 30 29 44 44 46 43 44 43 39 42 41 42 42 42 44 40 40
50 51 51 51 50 49 45 47 48 48 44 42 33 33 30 36 34 33 37 35 36 36 34 34 33 33 33 29 39 43 42 43 42 42 42 42 40 40 40 40 40 38 37 38
50 50 50 46 45 43 44 48 48 46 43 35 34 32 27 34 32 34 35 36 31 34 31 32 34 31 29 37 40 40 39 41 42 40 40 38 38 38 38 37 37 35 36 36
50 45 41 38 42 48 47 44 40 39 40 37 34 36 31 33 31 32 32 33 31 29 31 34 30 31 39 43 43 41 41 42 39 30 32 34 32 36 35 36 36 36 37 36
40 38 37 43 47 43 41 34 33 34 32 34 35 36 32 35 31 32 34 31 31 25 26 30 29 27 35 40 40 39 38 40 38 38 37 37 36 35 35 35 35 36 35 34
40 40 43 42 37 33 33 31 33 31 31 33 33 34 36 34 37 33 31 30 30 23 31 27 25 29 35 36 37 37 36 36 36 36 36 36 36 35 35 33 31 32 31 30
40 37 33 32 32 28 28 19 28 30 32 33 33 32 34 33 35 32 31 29 26 28 26 25 26 32 36 36 34 33 34 35 35 34 34 35 34 34 33 33 34 34 33 34
32 28 19 25 18 27 28 29 30 32 32 33 34 32 32 33 32 31 27 29 28 24 22 21 26 32 33 33 32 32 30 31 31 26 29 31 32 32 33 34 34 34 33 33
29 29 23 14 26 29 28 27 29 31 35 34 33 32 33 29 31 31 27 23 23 26 22 24 27 29 29 31 32 32 31 30 29 29 27 25 27 31 32 33 32 31 31 30
30 28 26 30 23 27 24 20 24 29 36 34 33 31 29 29 29 28 22 18 16 21 23 28 29 29 29 31 32 33 34 31 30 30 29 26 27 31 31 30 30 30 30 29
21 25 31 24 21 25 27 30 30 34 34 29 31 28 27 30 28 26 27 24 28 31 31 31 30 29 30 32 32 33 32 32 31 30 30 27 24 20 21 23 30 29 30 26

GFSNW_sfc_temp_168.txt.gz
Temp
56 56 57 57 57 56 50 44 39 49 49 40 35 34 41 46 45 47 45 42 41 38 40 39 38 38 40 45 44 39 40 37 28 34 39 41 38 36 37 31 30 28 28 27
56 56 56 57 57 56 43 42 42 48 47 36 33 39 43 44 43 43 43 42 44 43 39 36 39 40 47 47 43 39 40 35 25 33 36 39 35 37 39 37 32 30 27 30
56 56 56 56 56 56 45 42 38 43 41 40 39 37 39 40 44 44 45 44 44 41 39 41 37 40 45 46 45 49 46 39 36 33 34 36 34 35 37 36 28 30 30 32
56 56 56 56 56 55 46 41 40 40 36 40 38 39 41 40 39 43 44 41 41 38 35 37 36 39 41 44 46 44 42 35 32 35 37 36 35 35 36 34 34 31 34 35
57 56 55 55 55 55 45 43 41 39 39 41 38 39 38 40 40 40 40 38 41 39 35 35 34 36 35 34 40 38 40 33 33 32 36 36 34 36 37 36 36 36 36 32
56 56 55 55 55 54 46 43 43 44 42 38 37 38 39 41 42 42 43 40 39 38 39 39 39 39 40 36 34 36 36 32 28 29 32 34 32 33 34 35 35 38 33 39
56 56 55 55 55 52 46 43 43 42 39 40 41 43 43 42 41 39 41 40 38 40 44 43 41 40 39 39 37 37 36 32 28 24 30 24 35 37 39 40 40 39 40 41
56 56 56 55 55 55 46 44 44 42 39 41 41 43 42 41 41 39 41 41 42 41 40 37 34 33 33 35 36 37 37 34 28 26 26 33 34 37 38 38 37 42 42 42
56 55 55 55 55 55 47 43 44 43 41 41 43 42 42 39 36 38 40 42 43 41 38 36 30 30 30 32 32 35 38 35 32 27 27 27 35 38 41 41 34 42 43 41
56 55 55 55 55 54 47 44 45 44 41 42 42 41 41 42 38 38 37 38 39 40 34 32 31 31 34 30 29 30 30 29 29 28 27 33 39 40 41 31 37 42 43 42
55 55 55 55 54 54 49 44 45 44 40 42 44 45 41 41 40 39 40 40 39 36 34 33 32 31 33 30 33 31 33 29 28 28 27 27 41 39 39 43 38 42 42 43
54 55 55 55 54 54 50 43 46 45 42 42 43 42 42 42 42 41 39 40 39 39 34 32 32 33 31 32 32 34 32 37 34 35 35 43 41 41 42 43 42 41 42 42
53 55 55 55 55 55 51 44 43 43 40 40 40 39 42 45 43 43 41 38 41 39 39 36 35 33 34 31 31 31 35 37 36 38 38 41 43 41 42 44 44 44 44 43
51 53 54 54 54 54 52 45 44 43 40 35 38 44 39 43 43 43 43 43 43 41 39 36 35 34 38 34 36 36 38 37 37 35 39 39 43 43 44 44 43 43 43 42
51 51 50 52 54 54 50 49 49 48 42 38 37 39 39 41 41 41 42 42 40 38 36 34 35 36 35 34 33 34 39 39 36 36 43 43 43 42 43 42 42 42 41 39
51 51 51 50 50 52 49 44 47 49 48 41 35 36 34 38 39 39 39 40 38 37 37 34 35 39 36 29 30 42 43 42 44 46 41 42 42 42 40 42 41 41 40 40
50 51 51 50 49 49 45 43 46 49 48 42 35 33 34 35 36 36 36 37 36 36 35 33 34 36 34 29 29 45 45 44 41 41 40 38 40 42 42 41 41 43 39 38
50 50 50 50 50 49 45 46 48 48 44 42 33 33 31 34 31 31 34 32 34 34 33 33 34 35 33 29 39 43 39 39 41 42 41 41 40 39 38 39 38 37 36 36
50 50 50 46 45 43 43 48 48 46 43 35 34 32 27 33 31 32 32 34 30 32 30 31 34 31 29 38 38 38 37 39 40 38 37 36 37 36 36 37 36 35 35 35
50 45 42 38 42 47 47 44 40 39 40 37 34 36 28 32 31 31 30 31 30 23 30 33 30 31 40 42 41 41 38 40 39 30 31 33 33 34 35 35 36 36 36 35
40 37 36 42 47 43 41 34 33 33 32 35 35 35 30 35 32 32 34 30 29 22 26 28 28 26 34 39 37 38 36 36 36 37 36 37 36 34 35 34 35 35 34 34
39 39 42 42 37 34 33 32 32 32 31 33 34 34 36 34 37 33 32 30 30 22 31 28 24 29 35 35 34 35 34 34 33 35 35 34 35 35 35 33 31 32 31 30
39 34 33 30 31 29 26 19 25 30 32 33 33 31 33 33 35 32 31 28 27 28 26 24 25 30 34 33 32 32 33 35 35 33 34 35 34 34 33 32 32 32 32 32
29 22 20 22 19 26 28 28 30 31 32 33 32 31 32 32 31 31 27 29 28 23 22 20 23 29 31 30 31 31 32 31 31 26 28 30 32 32 33 33 33 32 32 32
26 28 16 22 26 27 28 28 29 32 34 34 32 32 33 30 30 31 27 25 24 26 20 22 26 29 28 29 30 31 30 29 28 27 22 21 24 30 30 31 31 31 31 32
29 27 22 26 22 26 22 22 24 31 35 33 32 31 29 28 30 27 24 18 14 23 28 29 26 28 28 28 30 31 31 30 30 29 28 26 26 29 30 29 29 30 30 30
24 23 28 28 27 24 26 28 29 32 29 23 29 25 26 28 26 23 21 18 26 28 31 30 30 29 31 31 31 32 31 31 29 28 28 26 22 18 20 22 29 29 30 28

GFSNW_sfc_temp_171.txt.gz
Temp
57 56 57 57 57 56 50 43 38 47 48 38 33 33 39 46 43 44 43 40 39 37 37 37 37 37 39 43 42 37 38 36 31 35 40 42 37 38 39 31 29 26 26 26
56 56 56 56 56 55 43 42 40 46 46 34 32 37 41 43 42 42 41 40 43 40 37 34 37 40 45 45 41 36 38 34 26 30 33 37 35 39 37 34 31 29 27 29
56 56 56 56 56 56 45 42 37 40 39 37 37 36 38 39 43 42 43 42 41 38 36 38 36 38 43 44 43 49 44 35 32 29 32 35 35 37 35 35 27 29 29 30
56 56 56 56 56 55 47 41 40 39 35 38 36 38 39 38 37 41 41 39 39 35 33 34 33 36 39 43 44 42 41 34 30 31 34 35 36 36 35 32 31 30 31 33
57 56 56 55 55 55 45 43 41 38 37 39 37 37 38 40 39 38 37 37 38 36 33 33 31 34 33 33 39 36 38 33 33 33 36 35 35 34 35 35 33 34 35 33
57 56 55 55 55 53 44 42 42 44 40 36 36 37 39 41 41 41 41 39 37 36 37 38 37 37 38 34 33 34 35 32 30 30 32 34 32 33 33 34 34 36 34 38
56 56 55 55 55 52 46 43 43 42 39 38 39 41 42 41 40 38 40 39 37 39 41 40 38 36 37 36 34 35 33 30 28 24 30 24 33 35 36 36 37 37 37 38
56 56 55 55 55 54 45 43 44 42 39 40 40 41 40 38 38 37 39 40 41 40 38 35 34 32 32 35 35 33 35 32 27 25 25 31 32 35 36 36 35 39 40 40
56 55 55 55 55 54 45 43 43 43 41 41 43 42 41 38 34 36 39 40 41 39 36 35 29 29 29 31 31 34 35 34 32 27 27 26 33 36 39 39 34 41 42 40
55 55 55 55 55 54 47 43 44 44 40 41 42 41 41 41 37 37 35 36 37 38 33 32 30 31 32 29 28 29 30 29 28 27 27 33 38 39 39 31 37 40 41 40
55 55 55 55 54 54 48 43 44 44 41 40 43 43 41 41 39 38 39 39 38 35 33 32 32 30 31 29 31 29 32 29 28 27 26 28 41 38 37 42 37 41 40 41
54 55 55 54 54 54 50 43 45 45 42 42 42 41 41 41 41 41 38 39 38 38 33 30 30 31 29 31 32 32 32 36 33 35 35 41 40 39 40 42 42 40 41 41
54 54 55 54 55 54 50 43 43 43 40 39 40 39 40 44 42 42 40 39 41 39 39 35 33 33 33 30 30 29 33 35 34 37 37 39 42 40 40 41 42 42 42 42
54 55 55 54 54 54 51 44 43 43 40 36 38 42 38 40 42 42 42 42 42 41 39 36 35 34 37 34 34 33 37 35 35 34 39 38 42 41 41 42 41 41 40 41
51 52 54 53 53 53 50 47 46 47 43 37 36 38 38 39 40 40 40 42 40 37 36 34 35 36 35 33 33 33 37 38 36 36 42 42 42 40 41 41 42 42 40 38
51 50 50 52 53 52 49 44 46 48 48 41 34 36 34 38 38 39 38 39 37 36 36 34 35 38 36 30 30 42 41 40 43 42 38 41 41 41 41 41 40 40 39 39
50 50 50 50 52 49 45 43 46 48 47 42 35 34 35 34 35 35 35 36 35 35 34 33 33 34 33 29 29 44 41 40 40 40 37 38 39 41 40 40 40 42 38 38
50 50 50 50 50 49 45 46 49 49 44 42 34 33 31 33 31 30 33 32 33 33 32 32 32 33 31 29 38 41 38 38 37 38 39 40 37 36 36 37 37 36 36 36
50 50 50 46 45 42 43 48 48 46 43 35 33 32 29 33 30 31 31 32 30 31 29 30 32 29 28 35 36 37 36 37 39 38 35 34 35 36 35 36 36 35 35 35
49 46 42 37 42 47 47 44 40 39 40 37 33 35 28 30 29 30 30 31 30 26 29 31 31 30 36 37 36 36 36 35 35 30 30 32 32 35 35 36 36 36 36 35
40 38 36 42 46 43 39 33 33 33 32 34 35 35 30 33 29 31 34 31 31 24 25 29 29 25 32 34 33 34 34 34 34 34 35 37 36 35 34 34 35 35 34 33
39 39 42 41 37 34 31 30 32 32 31 33 33 34 35 31 35 33 32 30 30 22 30 28 23 26 32 31 31 32 31 32 34 33 33 32 35 35 34 33 31 32 31 29
39 35 32 29 31 28 26 24 28 29 32 33 33 31 33 33 34 32 31 28 26 28 26 25 22 29 32 30 29 30 31 33 33 34 33 32 31 32 32 31 30 30 30 30
28 23 20 20 20 25 27 26 29 31 32 32 32 31 31 32 31 31 28 28 28 22 18 17 22 28 29 28 29 30 30 31 31 27 26 29 31 31 31 31 31 30 30 30
25 24 14 19 25 28 28 27 28 32 34 33 32 32 32 30 30 30 27 24 24 26 24 27 27 29 27 27 28 28 29 29 29 28 23 21 24 29 29 29 29 30 29 29
22 25 19 26 23 26 27 28 29 31 33 33 32 31 28 24 26 25 23 22 21 24 28 30 29 29 28 28 29 29 29 29 29 29 28 23 23 28 27 27 27 28 29 29
16 16 26 25 25 24 25 29 30 33 31 26 28 22 23 24 24 23 26 23 25 26 26 26 30 29 30 29 30 31 31 31 30 28 28 25 20 15 19 22 28 27 29 26

GFSNW_sfc_temp_174.txt.gz
Temp
57 57 57 57 57 56 50 44 39 46 46 37 32 31 36 45 42 43 42 39 38 35 36 35 36 34 38 42 41 37 37 36 27 33 39 40 38 34 37 31 27 26 26 26
57 56 56 57 57 56 43 42 40 46 45 32 31 35 40 42 41 41 40 39 41 39 36 33 37 38 43 43 39 36 38 32 26 30 35 38 35 38 36 34 32 26 26 28
56 56 56 56 56 56 44 40 38 39 39 36 33 34 38 38 42 41 42 40 39 36 34 37 35 38 42 41 40 48 43 33 33 29 33 34 31 34 34 34 25 28 27 28
57 56 56 56 56 56 44 40 41 41 35 36 35 36 36 36 37 40 40 37 37 34 31 32 32 35 38 42 44 39 38 32 29 32 34 35 36 35 35 33 33 28 30 30
57 56 56 55 55 55 42 40 40 39 39 38 37 37 36 38 38 39 37 36 37 36 33 34 31 32 31 31 37 34 36 32 31 31 34 33 34 33 35 35 31 32 32 32
57 56 55 55 55 52 41 40 42 45 42 37 36 36 38 40 41 41 40 39 36 35 38 38 36 37 37 34 31 33 33 31 28 28 30 32 30 32 33 33 32 35 33 37
56 56 55 55 55 53 44 42 43 42 40 39 39 40 40 40 39 36 39 37 35 38 39 38 36 34 36 35 33 34 32 30 28 24 30 23 33 34 36 35 35 34 34 35
56 56 55 55 55 55 44 42 43 42 39 41 40 40 40 37 36 36 38 39 40 39 37 34 33 31 31 33 34 31 33 31 27 25 25 30 31 34 35 34 34 37 37 37
56 56 55 55 55 55 45 42 43 43 41 41 44 42 40 37 33 35 37 39 40 38 35 33 29 29 28 30 30 32 34 32 31 26 26 25 32 35 37 37 33 40 39 38
56 55 55 55 55 54 47 43 43 44 41 42 43 42 41 41 36 36 33 35 35 37 32 31 29 30 30 29 27 28 29 28 28 27 26 32 36 37 38 30 36 40 40 39
55 55 55 54 54 54 49 44 44 44 41 40 42 44 42 41 40 38 38 38 37 33 32 31 31 29 30 27 29 27 31 28 27 27 25 27 39 36 34 42 36 39 39 39
55 54 54 54 54 54 51 43 44 44 42 41 41 41 40 41 42 42 38 39 37 38 33 30 29 31 27 28 30 29 32 35 32 34 35 40 39 38 38 40 41 38 39 39
55 55 55 54 54 54 51 43 43 43 40 39 39 38 40 43 41 42 41 39 40 38 38 35 33 32 32 30 30 28 31 33 33 36 36 37 40 39 39 38 39 40 40 41
54 55 55 54 54 54 51 44 43 43 41 36 37 42 37 40 42 42 42 42 40 40 38 36 35 34 36 33 33 33 36 34 34 34 38 37 40 39 40 41 40 40 39 40
54 54 54 53 53 53 50 47 44 45 43 37 36 38 37 39 40 39 39 41 39 37 36 33 34 34 34 32 32 33 36 36 35 35 41 41 40 40 39 40 42 42 40 37
50 53 53 53 52 52 49 44 46 48 45 38 31 35 34 37 38 38 38 38 36 36 36 33 34 36 34 28 29 41 38 38 40 40 37 40 41 42 39 39 41 39 39 38
49 49 51 52 52 49 45 43 45 48 46 41 35 32 36 35 34 35 35 36 34 35 33 32 32 33 32 29 29 41 39 39 39 36 36 36 36 38 40 37 37 41 37 37
49 49 49 51 51 49 45 45 49 49 44 41 33 32 30 36 32 32 32 32 32 32 31 31 31 32 30 29 36 37 37 38 37 38 38 38 37 37 35 35 36 35 35 35
50 50 49 47 45 42 42 48 48 47 44 36 33 32 28 33 30 32 32 32 30 31 29 30 32 29 27 32 31 32 33 34 36 35 35 37 35 36 34 34 34 34 34 34
49 45 40 36 42 47 47 43 40 40 40 38 33 35 29 30 29 29 29 30 29 27 29 31 32 32 34 33 32 32 32 32 32 27 31 32 32 34 32 34 35 36 36 34
40 37 35 42 46 43 38 32 32 32 31 34 35 35 29 32 27 29 33 31 31 23 26 30 29 25 31 32 31 31 30 30 31 31 33 32 34 34 35 34 34 34 34 33
39 39 42 41 35 32 30 30 32 31 30 33 32 33 35 32 34 33 32 30 30 22 27 28 25 26 31 30 29 29 29 30 31 31 32 32 34 33 33 32 30 31 31 29
39 35 32 30 31 26 25 24 28 29 32 33 33 31 34 33 34 32 31 28 26 29 26 25 23 28 30 28 28 28 29 30 31 31 31 32 31 33 32 30 30 29 28 29
29 25 23 23 23 26 26 27 28 30 32 32 33 31 31 32 31 31 28 28 27 18 15 18 25 28 29 28 29 29 28 29 29 25 23 26 31 30 31 30 29 29 28 29
24 24 17 20 26 28 28 28 29 31 34 32 32 31 32 30 30 30 27 22 21 22 21 26 28 29 28 28 28 27 27 27 27 27 21 19 21 28 28 28 28 28 28 28
22 21 20 26 25 26 27 27 27 31 32 32 32 30 29 27 28 25 21 22 23 21 27 28 28 29 27 27 28 28 29 28 29 29 28 23 24 28 27 26 27 27 28 28
14 16 26 26 25 24 26 28 29 32 30 26 27 23 22 22 20 20 25 21 23 25 26 26 30 29 28 29 30 31 30 29 28 28 28 24 19 14 17 21 27 26 27 24

GFSNW_sfc_temp_180.txt.gz
Temp
58 57 57 57 58 56 53 52 47 52 54 47 47 43 45 47 49 49 48 48 47 45 45 44 44 44 47 51 49 42 48 43 37 40 45 46 43 41 44 38 35 35 32 36
56 57 57 57 57 56 53 51 50 52 52 42 42 46 44 46 47 48 47 46 47 48 45 42 46 46 51 50 48 46 47 42 35 38 41 41 39 42 43 42 41 35 33 42
56 56 56 56 57 56 54 49 43 45 47 46 44 44 45 44 47 48 48 48 48 45 43 47 44 45 48 49 49 48 48 43 40 37 39 43 38 39 42 42 37 38 38 43
56 56 56 56 56 56 53 48 48 50 38 41 44 46 46 43 44 46 48 46 46 46 42 43 42 45 47 47 46 47 45 38 40 43 44 44 42 42 39 38 42 40 42 41
56 55 56 55 55 55 48 46 47 46 48 44 43 43 44 44 46 45 44 43 47 46 44 47 43 44 44 44 45 45 43 39 40 36 42 41 38 42 42 42 43 42 44 43
54 55 54 55 55 53 46 51 50 48 48 44 44 45 46 46 47 47 48 48 47 43 47 50 50 50 48 47 44 42 41 40 38 36 39 40 37 43 42 43 45 45 40 50
54 54 54 55 55 54 54 51 51 48 44 46 45 47 47 46 45 46 46 47 47 49 50 49 48 47 46 45 45 45 41 39 38 35 40 32 42 46 46 45 46 47 46 47
54 54 54 54 55 54 51 52 50 48 45 48 48 46 46 47 47 45 45 47 50 51 49 46 42 42 41 42 43 42 43 41 39 35 38 43 44 44 45 45 46 50 48 49
53 53 53 54 54 55 51 53 50 50 45 48 53 48 48 47 45 43 44 45 48 48 47 44 39 41 40 40 39 41 40 41 40 39 34 36 44 48 49 49 45 50 50 50
52 52 52 53 54 55 52 50 51 48 44 52 51 49 46 51 48 45 43 42 42 45 44 42 41 41 41 40 39 38 39 40 38 40 38 44 49 49 49 43 46 49 52 51
50 51 51 53 53 54 52 50 51 48 44 52 49 52 48 46 49 46 44 43 42 41 41 42 42 41 43 40 42 42 42 41 41 39 38 37 49 48 47 51 50 51 52 51
52 52 50 52 53 53 54 47 50 50 44 45 46 47 47 48 49 49 44 46 43 46 43 41 42 40 38 41 44 42 41 45 44 44 46 48 49 49 51 51 52 51 52 51
54 54 51 52 53 54 53 47 46 46 43 43 44 44 46 47 46 47 46 44 47 44 45 44 42 41 44 42 43 42 44 44 44 43 46 48 49 51 51 53 53 52 52 52
54 54 51 52 53 54 53 46 46 48 44 40 41 46 43 46 47 47 46 46 45 46 46 44 43 42 44 43 42 42 45 43 44 45 47 48 49 50 51 51 50 50 49 50
50 51 51 52 53 54 51 49 48 52 46 39 37 42 42 44 46 45 46 46 45 45 42 41 42 43 43 41 41 42 46 47 45 47 48 50 50 50 50 50 51 51 50 48
52 52 52 53 53 53 48 42 46 48 48 41 35 39 39 42 44 43 42 43 42 43 44 42 41 41 43 39 39 45 44 45 46 48 47 48 50 49 47 48 48 49 49 50
52 52 52 53 52 49 44 42 46 50 48 42 34 34 38 41 41 40 40 41 40 42 40 39 40 40 41 38 37 42 42 43 44 45 45 45 47 47 46 46 46 45 45 46
52 52 52 51 51 49 44 47 49 49 44 42 35 32 35 40 37 35 38 38 39 38 38 37 38 37 38 35 38 39 40 42 43 42 42 42 44 44 45 44 44 44 43 43
48 51 50 47 45 42 43 48 49 49 46 37 36 33 31 38 34 36 36 38 35 36 36 36 37 35 33 36 35 37 38 36 37 38 41 42 41 41 42 42 42 43 42 42
45 44 39 35 42 48 48 45 41 41 41 39 35 37 32 37 34 33 34 35 33 32 35 36 34 35 37 36 36 36 36 36 35 32 37 38 38 39 39 40 41 42 43 42
36 34 34 41 46 41 38 33 33 33 33 36 36 36 32 36 33 33 35 32 32 28 32 33 32 32 34 35 35 35 35 35 35 36 36 37 37 36 38 40 40 40 41 40
37 38 41 40 36 33 32 31 32 33 31 34 33 34 37 34 37 34 33 32 31 28 34 31 29 33 33 33 33 34 34 34 35 36 36 36 37 37 37 37 36 37 37 35
39 35 32 32 30 28 28 24 28 29 32 33 33 32 34 34 36 33 33 30 29 33 29 29 32 33 33 33 33 33 34 35 35 35 35 36 36 36 36 36 36 37 37 37
30 28 24 26 24 25 25 27 28 31 33 34 34 32 33 34 33 33 30 30 31 24 22 24 31 33 33 33 33 34 33 34 34 31 29 31 34 35 35 36 36 36 36 35
27 28 22 24 28 29 29 30 30 30 34 34 32 32 34 32 31 32 28 24 24 26 25 29 32 33 33 33 33 34 33 33 33 33 30 27 28 34 34 34 35 36 35 35
27 25 25 28 27 26 28 28 28 31 32 33 33 31 30 28 29 27 26 25 23 26 30 32 34 32 33 33 33 34 34 34 34 34 32 29 29 32 32 32 33 34 35 34
23 23 27 29 28 26 28 30 29 32 30 27 29 25 23 28 26 24 27 24 27 30 31 33 35 34 33 33 33 33 33 33 33 31 31 29 26 24 28 31 32 32 32 31

GFSNW_sfc_temp_183.txt.gz
Temp
57 57 57 57 57 57 52 55 49 56 60 49 53 47 51 48 52 54 52 50 50 49 51 49 49 48 51 56 53 45 50 45 38 44 51 51 48 44 44 33 34 40 36 38
56 56 57 57 57 56 58 53 56 57 56 45 48 53 48 51 51 52 51 49 52 53 49 44 51 51 55 54 52 49 51 43 36 42 42 44 41 46 45 41 43 37 34 39
55 56 56 56 55 57 57 52 46 46 47 53 47 51 50 49 52 52 53 52 53 50 48 52 48 49 53 53 52 48 49 45 41 37 42 46 41 43 44 43 35 38 37 43
55 55 56 56 55 55 54 53 50 56 41 43 48 51 51 48 47 50 52 49 49 49 46 48 47 50 51 52 49 49 48 40 43 44 45 45 43 43 44 38 42 39 45 45
55 55 55 55 55 55 48 48 49 53 51 55 50 48 48 48 51 51 48 46 52 52 47 51 48 49 50 49 50 48 49 40 44 38 46 44 40 45 46 45 45 45 47 45
55 55 54 54 54 53 46 50 56 51 49 53 49 50 49 51 53 54 55 52 51 48 51 56 57 56 55 53 48 47 45 42 41 37 44 42 39 45 46 46 48 48 42 51
55 55 54 54 54 54 49 48 51 48 43 48 50 52 54 52 52 51 51 52 50 51 56 54 53 53 52 51 50 51 45 43 42 36 44 34 44 49 48 47 49 50 50 52
54 54 54 54 54 54 49 49 45 45 41 49 51 51 52 54 54 49 51 52 54 56 51 47 46 45 44 47 49 48 48 44 40 35 39 48 46 47 47 46 48 53 51 53
53 53 53 54 54 54 52 49 49 47 41 44 54 52 54 50 52 51 49 49 53 51 49 46 42 43 45 42 40 46 46 46 40 43 35 37 46 50 53 52 45 54 54 53
53 53 52 53 53 53 52 49 52 45 40 48 55 50 51 57 56 53 49 45 45 49 45 40 43 45 47 42 42 37 40 41 37 41 40 47 51 52 53 42 44 54 56 55
52 51 51 52 52 53 50 47 54 45 42 46 55 56 52 54 54 51 49 47 45 42 41 43 44 44 48 44 49 46 45 43 42 42 39 37 52 50 47 51 53 54 56 57
50 50 51 51 51 52 52 42 53 52 44 43 55 59 58 54 53 55 51 51 48 51 47 45 46 42 44 48 46 47 42 48 47 47 47 51 52 51 53 53 54 54 56 56
50 50 50 52 53 52 51 45 49 48 42 42 45 48 53 52 53 55 52 52 55 49 52 49 46 43 47 43 45 47 49 49 47 47 49 50 53 54 54 55 54 54 54 56
49 50 50 53 53 54 51 45 50 47 44 36 42 52 48 52 52 51 53 51 51 52 50 48 46 44 47 45 45 45 48 46 48 48 50 51 51 52 52 53 53 53 52 53
48 48 51 52 53 54 51 49 50 52 44 36 41 46 47 49 50 49 51 52 51 50 45 44 44 45 46 45 44 45 48 50 47 47 51 52 51 52 52 52 53 53 53 51
47 48 51 50 52 51 46 40 47 52 50 38 33 43 44 46 49 48 49 50 49 49 49 45 45 44 44 41 42 47 49 48 48 48 49 50 51 52 51 51 50 52 52 53
47 49 50 49 50 49 43 42 46 52 50 40 32 32 38 45 45 44 44 46 45 48 44 43 44 42 44 41 39 43 45 46 47 47 47 48 49 48 50 49 50 48 48 51
46 49 51 51 52 51 45 49 51 51 44 42 32 31 32 39 36 36 43 40 43 42 42 41 42 40 41 37 43 42 43 45 46 45 44 44 46 47 48 48 48 47 47 47
45 51 52 48 46 41 43 49 49 50 44 33 33 31 30 36 35 37 37 41 36 40 39 40 41 38 35 40 40 40 40 39 40 41 43 45 43 44 44 45 45 45 45 46
44 43 40 35 42 48 48 44 40 39 40 39 34 35 31 36 33 35 36 39 35 32 36 38 36 37 38 39 39 40 39 38 38 33 37 38 38 40 41 42 43 44 45 45
36 34 34 40 45 42 36 32 32 32 31 36 34 36 33 36 34 34 38 34 35 31 33 34 32 34 36 38 38 38 38 38 38 38 38 39 39 38 39 42 42 42 43 41
34 36 40 40 34 32 32 32 32 32 31 34 34 34 36 34 39 34 35 32 34 29 35 33 31 34 34 36 35 36 38 38 38 38 37 38 38 39 39 38 37 38 37 36
37 34 32 32 31 28 29 27 29 30 33 33 35 33 35 35 39 33 33 31 30 36 31 31 33 33 35 35 35 35 37 38 37 36 37 38 38 38 38 38 38 40 40 40
31 29 25 26 24 26 26 28 29 31 34 34 35 33 34 35 34 34 31 30 33 29 27 28 32 34 34 35 35 36 35 36 36 31 30 32 34 35 37 37 39 39 38 37
29 30 23 24 28 29 29 31 30 30 34 35 33 34 37 33 32 34 31 27 27 29 28 30 33 34 34 34 35 35 35 35 33 34 31 30 31 35 35 35 36 37 37 37
29 28 26 28 27 26 28 29 29 31 33 34 35 32 31 29 31 29 28 28 26 27 31 33 34 33 34 34 35 36 36 36 36 35 33 32 31 33 34 34 35 35 36 34
26 25 29 28 27 26 28 30 29 33 32 28 31 27 25 30 28 25 28 26 28 30 32 35 36 35 34 35 35 34 35 35 35 33 32 31 29 28 30 32 34 32 33 30

GFSNW_sfc_temp_186.txt.gz
Temp
56 56 57 57 57 57 53 50 43 54 56 43 46 41 49 48 51 52 50 48 47 45 46 44 44 44 47 52 50 43 45 39 30 38 44 47 43 40 40 32 30 29 29 28
56 56 56 57 56 56 51 47 49 54 52 38 40 49 50 50 49 49 49 47 50 50 45 40 46 47 51 51 47 42 44 36 26 32 38 42 39 43 43 40 36 28 27 31
55 55 55 56 56 56 50 47 41 45 47 46 42 42 45 47 50 49 52 50 51 47 45 47 43 45 50 50 48 48 46 39 35 30 36 41 35 39 42 40 31 32 32 37
55 55 55 55 55 55 50 44 44 49 37 40 41 44 45 44 45 47 49 46 47 45 41 45 44 46 48 48 48 43 42 33 36 39 42 41 39 39 39 35 37 32 38 40
56 55 55 55 55 54 48 42 42 49 47 48 45 43 43 44 47 48 44 42 48 47 42 46 43 45 43 43 44 41 43 32 36 32 40 39 36 40 40 39 39 38 39 39
55 54 54 54 54 53 46 47 49 44 45 46 44 44 46 46 50 51 52 47 45 45 48 49 49 47 47 46 40 41 40 34 31 27 37 36 31 37 37 38 40 41 35 41
55 54 54 54 54 53 47 46 46 41 37 41 43 46 49 48 49 46 49 48 44 47 50 50 48 46 46 46 44 45 38 36 33 26 33 23 36 41 41 40 45 43 43 43
54 54 54 54 54 54 48 48 43 42 37 42 43 46 46 48 50 47 48 49 48 49 45 40 38 38 37 42 43 42 42 37 29 25 27 36 37 39 40 37 38 45 44 45
53 53 53 53 54 54 50 47 48 42 37 38 46 44 47 44 45 47 49 45 47 44 43 40 32 33 38 32 33 41 42 40 32 30 28 26 37 41 45 43 34 44 47 45
53 52 53 53 53 53 50 47 50 43 36 42 43 42 43 49 48 46 43 40 39 41 37 34 32 35 40 35 32 29 31 32 28 29 29 37 41 43 44 33 36 45 47 46
53 52 52 52 52 52 49 46 50 44 38 41 46 47 44 47 47 44 43 41 40 36 34 35 36 34 38 36 42 36 35 32 31 33 30 28 45 42 38 42 42 45 45 47
53 52 52 52 52 51 51 43 50 50 40 40 48 50 53 51 53 48 46 45 42 42 37 37 37 35 36 38 36 42 36 42 39 40 39 45 45 44 45 47 46 45 46 48
52 52 52 52 52 52 50 45 47 45 39 39 40 41 50 53 50 52 44 46 49 45 44 40 39 35 40 33 36 41 43 44 40 42 42 43 46 47 47 47 47 48 48 48
51 52 51 52 51 51 51 44 47 44 40 33 36 51 46 54 51 50 49 48 47 45 42 39 38 36 42 38 40 41 44 43 43 42 44 44 45 46 47 48 48 48 48 48
50 50 50 51 50 50 48 48 49 48 39 33 35 43 48 47 48 45 47 46 44 42 37 35 36 40 39 38 38 37 43 42 40 41 44 45 43 45 47 47 47 47 47 44
50 49 50 50 49 50 46 41 48 50 47 37 32 40 41 44 44 44 43 44 44 43 41 38 39 40 40 33 33 42 42 44 44 41 43 44 46 46 45 44 45 44 45 46
49 49 49 48 48 48 43 40 45 50 48 38 30 30 37 43 42 43 42 41 42 41 39 36 38 38 39 34 32 39 41 40 41 41 42 42 43 41 43 44 44 45 43 44
49 48 47 46 49 46 43 46 50 50 43 41 29 29 32 38 35 34 40 38 39 38 35 35 36 37 36 31 38 38 39 39 41 40 40 40 41 42 42 43 43 42 42 42
47 45 45 47 45 40 43 50 51 49 42 33 32 29 28 34 34 34 35 39 33 36 34 35 37 33 29 36 37 36 36 36 37 37 38 40 39 39 39 40 40 40 40 41
44 41 39 34 41 49 48 43 40 39 40 38 33 36 28 33 32 32 32 32 32 30 33 35 32 32 34 36 36 36 36 36 35 31 32 34 34 36 36 37 39 40 40 40
33 32 33 40 45 41 37 32 32 32 30 34 35 35 30 34 32 32 35 32 32 29 30 31 30 29 31 35 34 34 34 34 34 35 35 35 35 35 36 38 38 38 38 37
35 34 36 38 35 32 30 30 32 31 31 32 32 33 35 32 35 32 33 31 31 28 31 30 28 28 31 33 33 33 33 34 34 36 35 35 35 35 35 33 31 33 33 32
34 32 32 32 30 26 27 26 28 29 32 32 32 30 32 32 33 32 32 29 28 32 29 28 26 29 32 31 31 31 32 33 33 32 33 34 33 33 34 33 34 35 34 34
31 29 23 24 22 24 25 26 27 30 32 32 32 32 32 32 32 32 28 29 30 27 25 25 27 28 30 31 32 30 30 31 29 26 27 30 31 31 32 33 34 34 33 33
28 28 21 23 27 28 28 30 29 29 33 32 32 33 34 31 30 29 28 26 25 25 23 27 28 28 29 29 30 30 29 29 27 28 25 25 27 30 29 30 31 32 32 31
29 26 24 27 25 24 25 27 27 30 32 33 33 31 27 26 29 25 22 20 21 25 27 28 28 28 29 29 30 31 32 32 30 29 29 28 27 28 28 29 29 30 30 29
24 23 27 26 26 25 25 27 28 32 31 27 28 23 22 25 19 17 23 23 26 28 28 29 29 28 29 30 30 31 31 31 30 29 28 27 26 23 24 25 27 28 28 25

GFSNW_sfc_temp_192.txt.gz
Temp
56 56 56 56 56 55 52 47 36 49 51 38 36 34 41 48 46 46 45 41 40 38 38 36 36 37 41 46 45 37 39 34 26 32 41 43 39 36 35 24 23 25 25 27
55 55 55 56 56 55 49 43 44 48 48 33 32 39 43 45 45 45 42 41 43 41 38 35 38 40 46 47 44 39 39 31 23 29 33 37 34 37 37 35 34 27 25 29
55 55 55 55 55 56 49 44 32 42 43 42 39 34 37 40 47 45 44 43 43 39 37 40 38 39 45 45 45 49 45 34 30 25 32 34 33 35 35 33 25 27 29 32
55 55 55 54 55 55 49 43 37 40 35 37 37 38 38 38 38 44 43 40 41 39 35 36 36 39 41 43 47 42 39 29 29 33 35 36 34 34 34 30 33 28 30 31
55 55 54 54 54 54 41 41 38 39 37 41 36 36 37 38 41 41 40 39 43 40 36 39 38 41 36 39 37 38 38 30 30 27 34 32 32 34 33 32 32 32 35 34
55 55 54 54 53 50 37 40 45 42 40 36 38 37 37 40 42 43 46 43 40 39 42 43 43 42 42 43 39 36 35 31 28 25 30 31 29 34 33 34 35 35 30 36
54 54 54 54 53 50 40 38 39 36 34 37 36 40 41 40 41 38 43 43 38 46 47 45 43 40 39 39 38 40 34 32 29 25 28 22 35 37 38 36 38 39 38 36
54 54 54 54 54 53 41 40 39 35 28 36 35 38 39 40 40 39 41 44 46 46 42 37 33 34 34 35 35 34 37 34 28 23 23 32 35 37 36 34 36 39 39 39
53 53 53 52 53 52 44 44 43 40 33 31 37 35 36 33 35 37 41 47 44 41 38 34 27 27 32 31 28 35 36 36 31 26 23 25 36 39 42 40 32 41 42 40
53 52 52 52 53 53 45 41 46 41 34 39 38 32 33 38 36 35 38 38 36 39 32 31 30 28 36 30 28 26 28 28 27 26 25 32 40 42 43 31 37 42 43 42
52 52 52 53 53 53 46 40 43 41 35 38 41 42 36 37 36 33 37 37 35 32 29 30 30 26 33 31 33 29 28 25 24 26 24 25 45 41 39 43 40 43 43 43
52 52 52 52 52 52 51 40 44 44 38 37 43 45 47 45 44 36 37 38 38 37 31 30 29 29 28 31 30 32 31 36 31 34 35 44 45 44 44 45 45 44 43 44
51 51 52 52 52 52 51 42 40 40 37 37 37 37 46 49 47 49 35 39 42 40 43 36 33 30 32 29 30 32 36 38 36 37 40 41 43 46 48 48 47 46 47 47
51 51 52 52 51 51 51 38 40 41 38 30 33 47 42 49 48 47 46 43 44 42 41 37 33 31 36 32 35 34 38 36 37 36 39 40 43 46 45 45 46 46 47 48
50 50 51 51 51 51 48 43 41 43 36 29 32 41 46 45 47 44 45 42 41 39 36 34 33 35 35 33 31 34 38 39 36 37 44 43 43 43 44 43 42 44 45 45
49 49 50 50 50 50 41 35 41 44 42 33 27 40 39 43 44 42 41 42 40 39 38 35 37 40 37 32 28 39 43 41 42 41 40 41 42 42 41 42 42 42 41 44
49 49 49 49 49 44 37 33 39 47 44 34 30 30 36 41 42 40 39 40 39 39 37 35 37 37 39 35 31 40 43 39 39 38 40 37 39 40 42 42 42 44 40 41
49 49 49 49 49 47 40 44 48 47 39 35 29 29 32 37 33 32 38 36 36 35 34 36 34 35 36 30 36 43 43 38 38 38 38 38 39 39 38 39 40 39 39 39
48 48 48 42 39 35 38 46 48 46 38 31 31 28 26 37 34 36 35 38 31 35 32 33 35 33 29 35 36 36 36 37 40 37 38 36 37 37 37 37 37 37 37 38
48 40 34 29 38 43 42 41 36 34 34 33 30 32 28 35 33 32 32 33 31 27 31 34 31 31 39 39 36 38 36 36 35 32 33 33 33 34 34 35 36 38 37 37
34 25 27 36 43 35 37 32 30 31 29 32 33 31 29 35 31 31 34 30 32 27 28 29 28 30 37 31 32 33 33 34 35 36 37 36 35 34 34 34 34 36 36 35
37 37 40 36 31 30 30 28 30 29 26 30 32 30 33 33 37 33 31 29 30 26 33 30 24 35 29 31 30 30 31 32 33 36 34 34 33 33 34 33 30 31 32 31
34 31 27 27 28 24 25 22 26 28 31 33 33 31 32 32 34 32 31 28 27 32 29 26 23 28 26 28 28 28 31 32 33 32 32 33 32 32 31 30 30 32 32 32
29 26 23 22 21 20 21 22 23 27 28 29 33 31 31 32 30 31 28 30 28 25 22 21 23 27 28 31 31 30 29 31 31 28 28 29 29 29 30 31 31 31 29 30
26 25 20 21 24 25 23 25 26 29 30 29 31 31 32 31 29 30 28 25 24 23 21 23 26 27 28 28 29 28 28 27 28 28 26 25 25 27 27 29 30 30 29 29
27 23 19 24 19 20 23 24 24 29 29 31 32 30 28 27 28 24 21 23 19 21 23 26 27 26 27 27 27 28 28 29 28 27 27 25 26 26 26 28 28 28 29 28
22 21 27 25 23 22 23 25 25 29 26 26 28 24 19 26 21 20 23 20 22 24 25 26 26 26 26 27 28 29 29 29 28 28 27 26 26 26 27 25 25 26 26 24